Weather History for St. Cloud, MN

Change the Weather History Date:

Saturday, June 8, 2013

  Actual Average Record
Temperature  
Mean Temperature 59 °F 63 °F  
Max Temperature 70 °F 75 °F 98 °F (1985)
Min Temperature 48 °F 51 °F 34 °F (1901)
Degree Days  
Heating Degree Days 6 4  
Month to date heating degree days 75 36  
Since 1 June heating degree days 75 36  
Since 1 July heating degree days 8860 8490  
Cooling Degree Days 0 2  
Month to date cooling degree days 0 15  
Year to date cooling degree days 11 40  
Since 1 June cooling degree days 0 15  
Growing Degree Days 8 (Base 50)    
Moisture  
Dew Point 51 °F    
Average Humidity 77    
Maximum Humidity 100    
Minimum Humidity 53    
Precipitation  
Precipitation 0.00 in 0.13 in 1.30 in (1927)
Month to date precipitation 1.56 1.01  
Year to date precipitation 13.85 9.32  
Snow  
Snow 0.00 in 0.00 in 0.00 in ()
Month to date snowfall 0.0 0.0  
Since 1 June snowfall 0.0 0.0  
Since 1 July snowfall 78.5 45.7  
Snow Depth 0.00 in    
Sea Level Pressure  
Sea Level Pressure 29.93 in    
Wind  
Wind Speed 6 mph (ESE)    
Max Wind Speed 15 mph    
Max Gust Speed 21 mph    
Visibility 9 miles    
Events      
T = Trace of Precipitation, MM = Missing Value Source: NWS Daily Summary

Daily Weather History Graph

Daily Weather History Graph

Search for Another Location

Airport:

Trip Planner

Search our weather history database for the weather conditions in past years. The results will help you decide how hot, cold, wet, or windy it might be!

Date:

Astronomy

Jun. 08, 2013 Rise Set
Actual Time 5:27 AM CDT 9:03 PM CDT
Civil Twilight 4:50 AM CDT 9:41 PM CDT
Nautical Twilight 4:00 AM CDT 10:31 PM CDT
Astronomical Twilight 2:53 AM CDT 11:37 PM CDT
Moon 5:39 AM CDT (6/8) 9:03 PM CDT (6/8)
Length of Visible Light 16h 50m
Length of Day
15h 35m
New Moon, 0% of the Moon is Illuminated
Jun 8
New Moon
Jun 16
First Quarter
Jun 23
Full
Jun 29
Last Quarter
Jul 8
New

Hourly Weather History & Observations

Time (CDT) Temp. Dew Point Humidity Pressure Visibility Wind Dir Wind Speed Gust Speed Precip Events Conditions
12:53 AM 50.0 °F 48.9 °F 96% 29.95 in 8.0 mi Calm Calm - N/A   Partly Cloudy
1:53 AM 51.1 °F 50.0 °F 96% 29.95 in 7.0 mi Calm Calm - N/A   Overcast
2:53 AM 50.0 °F 48.9 °F 96% 29.94 in 5.0 mi East 3.5 mph - N/A   Mostly Cloudy
3:53 AM 51.1 °F 48.9 °F 92% 29.94 in 9.0 mi East 3.5 mph - N/A   Clear
4:53 AM 48.9 °F 48.0 °F 97% 29.94 in 4.0 mi Calm Calm - N/A   Mostly Cloudy
5:53 AM 51.1 °F 50.0 °F 96% 29.94 in 7.0 mi East 3.5 mph - N/A   Mostly Cloudy
6:53 AM 54.0 °F 51.1 °F 90% 29.94 in 8.0 mi East 4.6 mph - N/A   Scattered Clouds
7:53 AM 57.9 °F 52.0 °F 81% 29.94 in 10.0 mi ESE 4.6 mph - N/A   Clear
8:53 AM 61.0 °F 53.1 °F 75% 29.94 in 10.0 mi SSE 4.6 mph - N/A   Clear
9:53 AM 62.1 °F 52.0 °F 70% 29.94 in 10.0 mi SSE 6.9 mph - N/A   Mostly Cloudy
10:53 AM 64.0 °F 52.0 °F 65% 29.93 in 10.0 mi SE 8.1 mph - N/A   Overcast
11:53 AM 64.9 °F 50.0 °F 58% 29.93 in 10.0 mi ESE 8.1 mph - N/A   Scattered Clouds
12:53 PM 68.0 °F 52.0 °F 56% 29.92 in 10.0 mi SE 8.1 mph 16.1 mph N/A   Scattered Clouds
1:53 PM 66.0 °F 50.0 °F 56% 29.92 in 10.0 mi SE 10.4 mph - N/A   Overcast
2:53 PM 66.0 °F 51.1 °F 59% 29.92 in 10.0 mi SSE 10.4 mph - N/A   Mostly Cloudy
3:53 PM 66.9 °F 50.0 °F 54% 29.91 in 10.0 mi ESE 6.9 mph - N/A   Scattered Clouds
4:53 PM 66.9 °F 50.0 °F 54% 29.91 in 10.0 mi ESE 6.9 mph - N/A   Mostly Cloudy
5:53 PM 69.1 °F 52.0 °F 54% 29.91 in 10.0 mi SSE 8.1 mph - N/A   Mostly Cloudy
6:53 PM 68.0 °F 50.0 °F 52% 29.91 in 10.0 mi SE 9.2 mph - N/A   Partly Cloudy
7:53 PM 66.0 °F 51.1 °F 59% 29.91 in 10.0 mi SSE 10.4 mph - N/A   Overcast
8:53 PM 64.9 °F 51.1 °F 61% 29.91 in 10.0 mi ESE 4.6 mph - N/A   Partly Cloudy
9:53 PM 62.1 °F 53.1 °F 72% 29.91 in 10.0 mi ESE 3.5 mph - N/A   Mostly Cloudy
10:53 PM 61.0 °F 53.1 °F 75% 29.92 in 10.0 mi East 3.5 mph - N/A   Partly Cloudy
11:53 PM 61.0 °F 53.1 °F 75% 29.91 in 10.0 mi East 6.9 mph - N/A   Mostly Cloudy